ロニオス彗星

P/2018 X1 ( LONEOS )

English version
Home page
Updated on December 8, 2018

---------------------------------------------------------------------

・ プロフィール

検出日 2018年12月4日
検出光度 20.6等
検出者 Erwin Schwab (Egelsbach, Germany), D. Abreu (European Space Agency's Optical Ground Station, Tenerife)

・ 軌道要素

Epoch 2019 Oct. 4.0 TT = JDT 2458760.5
T 2019 Sept. 29.17949 TT                                MPCW
q   2.8309423            (2000.0)            P               Q
n   0.06943162     Peri.  285.39253     -0.49563322     +0.86840680
a   5.8627026      Node   314.88620     -0.78866977     -0.45710445
e   0.5171267      Incl.    1.19230     -0.36379624     -0.19215919
P  14.20
From 203 observations 2005 Apr. 2-2018 Dec. 6, mean residual 0".5.

・ 光度変化

        m1 = 11.0 + 5 logΔ + 10.0 log r

---------------------------------------------------------------------

軌道要素はM.P.E.C. 2018-X49に掲載されたものです。
光度グラフはComet for Windowsで作成したものです。

---------------------------------------------------------------------

Copyright(C) Seiichi Yoshida (comet@aerith.net). All rights reserved.